Bolton Field, OH

11:46 PM EDT on July 27, 2017 (GMT -0400)
Bolton

Weather History for KTZR - June, 2014

Change the Weather History Date:

Monday, June 2, 2014

  Actual Average Record
Temperature  
Mean Temperature 73 °F -  
Max Temperature 78 °F 73 °F 86 °F (1998)
Min Temperature 68 °F 56 °F 44 °F (2003)
Cooling Degree Days 8    
Growing Degree Days 23 (Base 50)    
Moisture  
Dew Point 67 °F    
Average Humidity 82    
Maximum Humidity 99    
Minimum Humidity 65    
Precipitation  
Precipitation 0.28 in - - ()
Sea Level Pressure  
Sea Level Pressure 30.08 in    
Wind  
Wind Speed 10 mph (SSW)    
Max Wind Speed 18 mph    
Max Gust Speed 29 mph    
Visibility 10 miles    
Events Rain , Thunderstorm    
Averages and records for this station are not official NWS values.
T = Trace of Precipitation, MM = Missing Value Source: NWS Daily Summary

Daily Weather History Graph

Daily Weather History Graph

Search for Another Location

Airport or City:

Trip Planner

Search our weather history database for the weather conditions in past years. The results will help you decide how hot, cold, wet, or windy it might be!

Date:

Astronomy

Jun. 02, 2014 Rise Set
Actual Time 6:05 AM EDT 8:55 PM EDT
Civil Twilight 5:33 AM EDT 9:27 PM EDT
Nautical Twilight 4:53 AM EDT 10:08 PM EDT
Astronomical Twilight 4:06 AM EDT 10:54 PM EDT
Moon 10:31 AM EDT (6/2) No Moon Set
Length of Visible Light 15h 54m
Length of Day
14h 50m
Waxing Crescent, 21% of the Moon is Illuminated
Jun 2
Waxing Crescent
Jun 5
First Quarter
Jun 13
Full
Jun 19
Last Quarter
Jun 27
New

Hourly Weather History & Observations

Time (EDT) Temp. Dew Point Humidity Pressure Visibility Wind Dir Wind Speed Gust Speed Precip Events Conditions
12:15 AM 74.7 °F 67.5 °F 78% 30.10 in 10.0 mi SSW 9.2 mph - N/A   Scattered Clouds
12:35 AM 74.5 °F 67.8 °F 80% 30.10 in 10.0 mi SSW 9.2 mph - N/A   Scattered Clouds
12:55 AM 74.3 °F 68.5 °F 82% 30.10 in 10.0 mi South 8.1 mph - N/A   Scattered Clouds
1:15 AM 73.9 °F 68.5 °F 83% 30.10 in 10.0 mi SSW 10.4 mph - N/A   Clear
1:35 AM 73.4 °F 68.7 °F 85% 30.11 in 10.0 mi SSW 8.1 mph - N/A   Clear
1:55 AM 73.4 °F 68.9 °F 86% 30.10 in 10.0 mi SSW 8.1 mph - N/A   Mostly Cloudy
2:15 AM 73.4 °F 68.9 °F 86% 30.11 in 10.0 mi SSW 8.1 mph - N/A   Overcast
2:35 AM 73.4 °F 68.9 °F 86% 30.11 in 10.0 mi SSW 8.1 mph - N/A   Overcast
2:55 AM 73.4 °F 69.1 °F 86% 30.11 in 10.0 mi SW 8.1 mph - N/A   Overcast
3:15 AM 73.0 °F 69.1 °F 87% 30.11 in 10.0 mi SSW 8.1 mph - N/A   Overcast
3:35 AM 72.9 °F 69.1 °F 88% 30.11 in 10.0 mi SSW 6.9 mph - N/A   Overcast
3:55 AM 72.5 °F 69.1 °F 89% 30.11 in 10.0 mi SSW 5.8 mph - N/A   Overcast
4:15 AM 72.5 °F 69.1 °F 89% 30.11 in 10.0 mi South 5.8 mph - N/A   Overcast
4:35 AM 72.7 °F 68.9 °F 88% 30.11 in 10.0 mi South 5.8 mph - N/A   Overcast
4:55 AM 72.5 °F 68.9 °F 88% 30.10 in 10.0 mi South 6.9 mph - N/A Rain , Thunderstorm Light Thunderstorms and Rain
5:15 AM 71.8 °F 68.7 °F 90% 30.12 in 10.0 mi West 10.4 mph 17.3 mph N/A Thunderstorm Thunderstorm
5:35 AM 69.6 °F 68.4 °F 96% 30.11 in 10.0 mi WSW 5.8 mph - 0.01 in Thunderstorm Thunderstorm
5:55 AM 69.1 °F 68.0 °F 96% 30.11 in 2.5 mi SW 11.5 mph 20.7 mph 0.22 in Rain Heavy Rain
6:15 AM 69.3 °F 68.9 °F 99% 30.12 in 7.0 mi SSW 5.8 mph - 0.06 in   Overcast
6:40 AM 70.3 °F 68.9 °F 95% 30.12 in 10.0 mi SSW 8.1 mph - 0.06 in   Overcast
6:55 AM 70.3 °F 68.4 °F 93% 30.13 in 7.0 mi SSW 8.1 mph 16.1 mph 0.06 in Rain Light Rain
7:15 AM 70.3 °F 68.5 °F 94% 30.13 in 10.0 mi SSW 8.1 mph - N/A   Overcast
7:20 AM 71.6 °F 68.0 °F 88% 30.13 in 10.0 mi SSW 8.1 mph - N/A   Mostly Cloudy
7:50 AM 71.6 °F 69.8 °F 94% 30.13 in 10.0 mi South 8.1 mph - N/A   Mostly Cloudy
8:47 AM 71.6 °F 66.2 °F 83% 30.14 in 10.0 mi SW 12.7 mph - N/A Rain Light Rain
9:47 AM 71.6 °F 64.4 °F 78% 30.15 in 10.0 mi SW 17.3 mph 28.8 mph N/A   Overcast
10:10 AM 69.8 °F 64.4 °F 83% 30.15 in 10.0 mi SSW 15.0 mph - N/A Rain Light Rain
10:20 AM 69.8 °F 64.4 °F 83% 30.15 in 10.0 mi SW 12.7 mph 19.6 mph N/A   Overcast
10:25 AM 69.8 °F 64.4 °F 83% 30.15 in 10.0 mi SW 12.7 mph 19.6 mph N/A Rain Light Rain
10:47 AM 68.0 °F 66.2 °F 94% 30.14 in 10.0 mi SSW 13.8 mph - N/A Rain Rain
11:47 AM 69.8 °F 66.2 °F 88% 30.13 in 10.0 mi South 8.1 mph - N/A   Mostly Cloudy
12:55 PM 75.2 °F 66.2 °F 73% 30.12 in 10.0 mi South 9.2 mph - N/A Rain Light Rain
2:50 PM 78.8 °F 66.2 °F 65% 30.08 in 10.0 mi South 13.8 mph 20.7 mph N/A   Mostly Cloudy
3:50 PM 78.8 °F 66.2 °F 65% 30.06 in 10.0 mi South 18.4 mph - N/A   Mostly Cloudy
4:50 PM 78.8 °F 66.2 °F 65% 30.04 in 10.0 mi South 13.8 mph 24.2 mph N/A   Mostly Cloudy
5:50 PM 78.8 °F 66.2 °F 65% 30.02 in 10.0 mi SSW 12.7 mph - N/A   Overcast
6:50 PM 78.8 °F 66.2 °F 65% 30.01 in 10.0 mi SSW 13.8 mph 23.0 mph N/A   Mostly Cloudy
7:35 PM 76.5 °F 65.7 °F 69% 30.00 in 10.0 mi South 15.0 mph 18.4 mph N/A   Mostly Cloudy
7:55 PM 76.1 °F 65.8 °F 70% 30.00 in 10.0 mi South 11.5 mph 19.6 mph N/A   Scattered Clouds
8:15 PM 75.2 °F 65.7 °F 72% 30.00 in 10.0 mi South 11.5 mph - N/A   Scattered Clouds
8:35 PM 74.8 °F 66.2 °F 74% 30.00 in 10.0 mi South 9.2 mph - N/A   Scattered Clouds
8:55 PM 74.7 °F 66.2 °F 75% 30.00 in 10.0 mi South 13.8 mph - N/A   Mostly Cloudy
9:15 PM 74.3 °F 66.2 °F 76% 30.00 in 10.0 mi South 10.4 mph - N/A   Scattered Clouds
9:35 PM 74.1 °F 65.8 °F 75% 30.00 in 10.0 mi South 11.5 mph - N/A   Mostly Cloudy
9:55 PM 73.9 °F 65.8 °F 76% 30.01 in 10.0 mi South 12.7 mph 18.4 mph N/A   Overcast
10:15 PM 73.6 °F 65.8 °F 77% 30.01 in 10.0 mi South 10.4 mph - N/A   Overcast
10:35 PM 73.4 °F 65.8 °F 77% 30.01 in 10.0 mi South 12.7 mph 17.3 mph N/A   Overcast
10:55 PM 73.4 °F 65.7 °F 77% 30.01 in 10.0 mi South 11.5 mph 20.7 mph N/A   Mostly Cloudy
11:15 PM 73.0 °F 65.5 °F 77% 30.01 in 10.0 mi SSW 15.0 mph - N/A   Mostly Cloudy
11:35 PM 72.7 °F 65.7 °F 79% 30.01 in 10.0 mi South 11.5 mph - N/A   Overcast
11:55 PM 72.7 °F 65.7 °F 79% 30.01 in 10.0 mi SSW 11.5 mph - N/A   Overcast